Weather History for Waycross, GA

Change the Weather History Date:

Friday, February 22, 2013

  Actual Average (KAMG) Record (KAMG)
Temperature  
Mean Temperature 63 °F 56 °F  
Max Temperature 71 °F 67 °F 82 °F (2005)
Min Temperature 55 °F 44 °F 25 °F (1958)
Degree Days  
Heating Degree Days 2 10  
Month to date heating degree days 256  
Since 1 July heating degree days 1345  
Cooling Degree Days 0 0  
Month to date cooling degree days 0  
Year to date cooling degree days 5  
Growing Degree Days 13 (Base 50)    
Moisture  
Dew Point 59 °F    
Average Humidity 89    
Maximum Humidity 100    
Minimum Humidity 72    
Precipitation  
Precipitation 0.00 in 0.14 in 1.73 in (1998)
Month to date precipitation 2.96  
Year to date precipitation 7.22  
Snow  
Snow 0.00 in 0.00 in 0.00 in ()
Month to date snowfall 0.0  
Since 1 July snowfall 0.1  
Snow Depth -    
Sea Level Pressure  
Sea Level Pressure 30.04 in    
Wind  
Wind Speed 4 mph (SE)    
Max Wind Speed 12 mph    
Max Gust Speed -    
Visibility 8 miles    
Events      
T = Trace of Precipitation, MM = Missing Value Source: NWS Daily Summary

Daily Weather History Graph

Daily Weather History Graph

Search for Another Location

Airport:

Trip Planner

Search our weather history database for the weather conditions in past years. The results will help you decide how hot, cold, wet, or windy it might be!

Date:

Astronomy

Feb. 22, 2013 Rise Set
Actual Time 7:03 AM EST 6:22 PM EST
Civil Twilight 6:39 AM EST 6:47 PM EST
Nautical Twilight 6:10 AM EST 7:15 PM EST
Astronomical Twilight 5:42 AM EST 7:43 PM EST
Moon 3:40 PM EST (2/22) 4:40 AM EST (2/22)
Length of Visible Light 12h 08m
Length of Day
11h 19m
Waxing Gibbous, 90% of the Moon is Illuminated
Feb 22
Waxing Gibbous
Feb 25
Full
Mar 4
Last Quarter
Mar 11
New
Mar 19
First Quarter

Hourly Weather History & Observations

Time (EST) Temp. Dew Point Humidity Pressure Visibility Wind Dir Wind Speed Gust Speed Precip Events Conditions
12:15 AM 57.2 °F 48.2 °F 72% 30.06 in 10.0 mi East 4.6 mph - N/A   Overcast
12:35 AM 57.2 °F 50.0 °F 77% 30.06 in 10.0 mi East 3.5 mph - N/A   Overcast
12:55 AM 57.2 °F 50.0 °F 77% 30.06 in 10.0 mi ESE 4.6 mph - N/A   Overcast
1:15 AM 57.2 °F 50.0 °F 77% 30.06 in 10.0 mi East 4.6 mph - N/A   Mostly Cloudy
1:35 AM 57.2 °F 51.8 °F 82% 30.05 in 10.0 mi East 4.6 mph - N/A   Mostly Cloudy
1:55 AM 57.2 °F 51.8 °F 82% 30.05 in 10.0 mi ESE 4.6 mph - N/A   Overcast
2:15 AM 57.2 °F 51.8 °F 82% 30.04 in 10.0 mi East 5.8 mph - N/A   Overcast
2:35 AM 57.2 °F 51.8 °F 82% 30.04 in 10.0 mi East 3.5 mph - N/A   Mostly Cloudy
2:55 AM 57.2 °F 51.8 °F 82% 30.04 in 10.0 mi East 4.6 mph - N/A   Mostly Cloudy
3:15 AM 57.2 °F 51.8 °F 82% 30.04 in 10.0 mi East 3.5 mph - N/A   Mostly Cloudy
3:35 AM 57.2 °F 53.6 °F 88% 30.04 in 10.0 mi Calm Calm - N/A   Scattered Clouds
3:55 AM 57.2 °F 53.6 °F 88% 30.03 in 10.0 mi East 4.6 mph - N/A   Mostly Cloudy
4:15 AM 57.2 °F 53.6 °F 88% 30.03 in 10.0 mi East 6.9 mph - N/A   Mostly Cloudy
4:35 AM 57.2 °F 53.6 °F 88% 30.02 in 10.0 mi East 5.8 mph - N/A   Scattered Clouds
4:55 AM 57.2 °F 53.6 °F 88% 30.03 in 10.0 mi East 5.8 mph - N/A   Scattered Clouds
5:15 AM 57.2 °F 53.6 °F 88% 30.03 in 10.0 mi East 5.8 mph - N/A   Scattered Clouds
5:35 AM 55.4 °F 53.6 °F 94% 30.03 in 10.0 mi East 5.8 mph - N/A   Mostly Cloudy
5:55 AM 55.4 °F 53.6 °F 94% 30.04 in 10.0 mi East 3.5 mph - N/A   Mostly Cloudy
6:15 AM 57.2 °F 53.6 °F 88% 30.04 in 10.0 mi Calm Calm - N/A   Unknown
6:35 AM 57.2 °F 53.6 °F 88% 30.05 in 10.0 mi Calm Calm - N/A   Overcast
6:55 AM 57.2 °F 55.4 °F 94% 30.06 in 10.0 mi Calm Calm - N/A   Overcast
7:15 AM 57.2 °F 55.4 °F 94% 30.06 in 10.0 mi ESE 4.6 mph - N/A   Overcast
7:35 AM 57.2 °F 55.4 °F 94% 30.06 in 10.0 mi ESE 4.6 mph - N/A   Overcast
7:55 AM 59.0 °F 55.4 °F 88% 30.06 in 10.0 mi SE 5.8 mph - N/A   Overcast
8:15 AM 60.8 °F 57.2 °F 88% 30.06 in 10.0 mi SE 5.8 mph - N/A   Overcast
8:35 AM 62.6 °F 59.0 °F 88% 30.06 in 10.0 mi Calm Calm - N/A   Overcast
8:55 AM 62.6 °F 60.8 °F 94% 30.05 in 7.0 mi SSE 8.1 mph - N/A   Mostly Cloudy
9:15 AM 64.4 °F 60.8 °F 88% 30.06 in 10.0 mi SSE 4.6 mph - N/A   Clear
9:35 AM 66.2 °F 60.8 °F 83% 30.07 in 10.0 mi ESE 3.5 mph - N/A   Clear
9:55 AM 68.0 °F 62.6 °F 83% 30.06 in 10.0 mi SE 4.6 mph - N/A   Clear
10:15 AM 69.8 °F 62.6 °F 78% 30.06 in 10.0 mi Calm Calm - N/A   Clear
10:35 AM 69.8 °F 62.6 °F 78% 30.07 in 10.0 mi NE 3.5 mph - N/A   Mostly Cloudy
10:55 AM 69.8 °F 62.6 °F 78% 30.07 in 10.0 mi East 3.5 mph - N/A   Overcast
11:15 AM 69.8 °F 62.6 °F 78% 30.06 in 10.0 mi East 4.6 mph - N/A   Scattered Clouds
11:35 AM 71.6 °F 62.6 °F 73% 30.08 in 10.0 mi Calm Calm - N/A   Scattered Clouds
12:15 PM 69.8 °F 62.6 °F 78% 30.08 in 10.0 mi North 4.6 mph - N/A   Overcast
12:35 PM 71.6 °F 62.6 °F 73% 30.07 in 10.0 mi NNE 3.5 mph - N/A   Mostly Cloudy
12:55 PM 71.6 °F 62.6 °F 73% 30.07 in 10.0 mi NE 3.5 mph - N/A   Mostly Cloudy
1:15 PM 69.8 °F 62.6 °F 78% 30.06 in 10.0 mi NNE 4.6 mph - N/A   Mostly Cloudy
1:55 PM 69.8 °F 62.6 °F 78% 30.07 in 10.0 mi NW 5.8 mph - N/A   Overcast
2:15 PM 69.8 °F 64.4 °F 83% 30.06 in 10.0 mi Calm Calm - N/A   Overcast
2:35 PM 68.0 °F 64.4 °F 88% 30.05 in 7.0 mi Calm Calm - N/A   Mostly Cloudy
2:55 PM 68.0 °F 66.2 °F 94% 30.05 in 7.0 mi Calm Calm - N/A   Clear
3:15 PM 66.2 °F 66.2 °F 100% 30.04 in 4.0 mi SSW 3.5 mph - N/A   Mostly Cloudy
3:35 PM 66.2 °F 66.2 °F 100% 30.02 in 7.0 mi SSW 11.5 mph - N/A   Scattered Clouds
3:55 PM 66.2 °F 64.4 °F 94% 30.00 in 10.0 mi South 8.1 mph - N/A   Scattered Clouds
4:15 PM 66.2 °F 64.4 °F 94% 29.99 in 10.0 mi South 8.1 mph - N/A   Scattered Clouds
4:35 PM 66.2 °F 64.4 °F 94% 30.00 in 10.0 mi SSW 9.2 mph - N/A   Mostly Cloudy
4:55 PM 66.2 °F 64.4 °F 94% 30.00 in 10.0 mi SSW 10.4 mph - N/A   Overcast
5:15 PM 66.2 °F 64.4 °F 94% 30.00 in 10.0 mi South 8.1 mph - N/A   Overcast
5:35 PM 66.2 °F 64.4 °F 94% 30.02 in 10.0 mi Calm Calm - N/A   Overcast
5:55 PM 64.4 °F 62.6 °F 94% 30.02 in 10.0 mi SSW 9.2 mph - N/A   Overcast
6:15 PM 64.4 °F 64.4 °F 100% 30.03 in 10.0 mi SSW 4.6 mph - N/A   Overcast
6:35 PM 64.4 °F 64.4 °F 100% 30.03 in 7.0 mi SSW 6.9 mph - N/A   Overcast
6:55 PM 64.4 °F 64.4 °F 100% 30.05 in 7.0 mi SSW 8.1 mph - N/A   Overcast
7:15 PM 64.4 °F 62.6 °F 94% 30.05 in 7.0 mi SSW 4.6 mph - N/A   Overcast
7:35 PM 64.4 °F 62.6 °F 94% 30.05 in 7.0 mi Calm Calm - N/A   Overcast
7:55 PM 62.6 °F 62.6 °F 100% 30.05 in 7.0 mi Calm Calm - N/A   Overcast
8:15 PM 62.6 °F 62.6 °F 100% 30.05 in 5.0 mi Calm Calm - N/A   Mostly Cloudy
8:35 PM 62.6 °F 62.6 °F 100% 30.05 in 2.5 mi South 3.5 mph - N/A   Mostly Cloudy
8:55 PM 62.6 °F 62.6 °F 100% 30.06 in 7.0 mi South 5.8 mph - N/A   Overcast
9:15 PM 62.6 °F 62.6 °F 100% 30.04 in 2.0 mi Calm Calm - N/A   Overcast
9:35 PM 62.6 °F 62.6 °F 100% 30.05 in 5.0 mi Calm Calm - N/A   Overcast
9:55 PM 62.6 °F 62.6 °F 100% 30.05 in 3.0 mi SSW 5.8 mph - N/A   Overcast
10:15 PM 62.6 °F 62.6 °F 100% 30.04 in 2.0 mi SSE 4.6 mph - N/A   Overcast
10:35 PM 62.6 °F 62.6 °F 100% 30.03 in 2.5 mi SE 8.1 mph - N/A   Overcast
10:55 PM 62.6 °F 62.6 °F 100% 30.02 in 5.0 mi SSE 3.5 mph - N/A   Overcast
11:15 PM 62.6 °F 62.6 °F 100% 30.01 in 5.0 mi Calm Calm - N/A   Overcast
11:35 PM 62.6 °F 62.6 °F 100% 30.00 in 5.0 mi Calm Calm - N/A   Overcast
11:55 PM 62.6 °F 62.6 °F 100% 30.00 in 5.0 mi Calm Calm - N/A   Overcast